This demonstration page uses our WeatherBlox Daily Observations layout. Learn more.

39.51506, -84.39828

Hourly Observations for November 19, 2019

Temp ( °F °C ) Dew Point ( °F °C ) Humidity (%) Winds ( mph kmh ) Pressure ( in mb ) Visibility ( mi km ) Precip ( " mm )
12:15 am 00:15 Cloudy with Mist and Fog 39 3.9 37 2.5 91 91 SW 6 9 29.83 1010 5 8.0467 0 0
12:35 am 00:35 Cloudy with Mist and Fog 39 3.9 37 2.5 91 91 SW 5 7 29.82 1010 5 8.0467 0 0
12:55 am 00:55 Cloudy with Mist and Fog 39 3.9 37 2.5 91 91 SW 3 6 29.82 1010 7 11.26538 0 0
1:15 am 01:15 Cloudy with Mist and Fog 39 3.8 37 2.5 91 91 SW 5 7 29.82 1010 7 11.26538 0 0
1:35 am 01:35 Cloudy 39 3.9 37 2.5 91 91 SW 5 7 29.82 1010 7 11.26538 0 0
1:55 am 01:55 Cloudy 39 3.8 37 2.5 91 91 WSW 3 6 29.82 1010 7 11.26538 0 0
2:15 am 02:15 Cloudy 39 3.8 37 2.6 92 92 WSW 6 9 29.83 1010 7 11.26538 0 0
2:35 am 02:35 Cloudy 39 3.7 37 2.6 93 93 WSW 5 7 29.84 1010 7 11.26538 0 0
2:55 am 02:55 Cloudy 39 3.7 37 2.5 92 92 WSW 5 7 29.84 1010 7 11.26538 0 0
3:15 am 03:15 Cloudy 39 3.7 37 2.5 92 92 SW 5 7 29.84 1010 7 11.26538 0 0
3:35 am 03:35 Cloudy 38 3.6 37 2.6 93 93 WSW 5 7 29.84 1010 7 11.26538 0 0
3:55 am 03:55 Cloudy 39 3.7 36 2.4 91 91 WSW 6 9 29.84 1010 7 11.26538 0 0
4:15 am 04:15 Cloudy 38 3.6 36 2.4 92 92 WSW 5 7 29.84 1010 7 11.26538 0 0
4:35 am 04:35 Cloudy 38 3.4 36 2.4 93 93 Calm 29.84 1010 10 16.0934 0 0
4:55 am 04:55 Cloudy 38 3.3 36 2.4 94 94 Calm 29.84 1010 7 11.26538 0 0
5:15 am 05:15 Cloudy 38 3.4 36 2.3 93 93 Calm 29.83 1010 7 11.26538 0 0
5:35 am 05:35 Cloudy 38 3.2 36 2.2 93 93 Calm 29.83 1010 7 11.26538 0 0
5:55 am 05:55 Cloudy 37 2.6 35 1.7 94 94 Calm 29.83 1010 7 11.26538 0 0
6:15 am 06:15 Cloudy with Mist and Fog 36 2.3 35 1.6 95 95 Calm 29.83 1010 7 11.26538 0 0
6:35 am 06:35 Cloudy with Mist and Fog 37 2.6 36 2.1 97 97 SW 3 6 29.83 1010 7 11.26538 0 0
6:55 am 06:55 Cloudy with Mist and Fog 37 2.6 36 2 96 96 Calm 29.84 1010 5 8.0467 0 0
7:15 am 07:15 Mostly Cloudy with Mist and Fog 37 2.6 36 2 96 96 S 3 6 29.84 1010 5 8.0467 0 0
7:35 am 07:35 Sunny with Mist and Fog 35 1.9 35 1.4 97 97 Calm 29.85 1011 4 6.43736 0 0
7:55 am 07:55 Partly Cloudy with Mist and Fog 36 2 35 1.6 97 97 Calm 29.86 1011 4 6.43736 0 0
8:15 am 08:15 Partly Cloudy with Mist and Fog 35 1.4 34 1.1 98 98 Calm 29.86 1011 3 4.82802 0 0
8:35 am 08:35 Mostly Cloudy with Mist and Fog 34 1.2 34 1 99 99 Calm 29.87 1012 3 4.82802 0 0
8:55 am 08:55 Partly Cloudy with Mist and Fog 36 2.2 35 1.9 98 98 Calm 29.87 1011 3.5 5.63269 0 0
9:15 am 09:15 Partly Cloudy with Mist and Fog 39 3.7 37 2.8 94 94 Calm 29.87 1011 5 8.0467 0 0
9:35 am 09:35 Cloudy with Mist and Fog 40 4.4 37 2.5 88 88 Calm 29.86 1011 7 11.26538 0 0
9:55 am 09:55 Hazy 41 5.1 36 2.2 82 82 Calm 29.85 1011 7 11.26538 0 0
10:15 am 10:15 Sunny 42 5.3 36 2 80 80 SSE 5 7 29.85 1011 7 11.26538 0 0
10:35 am 10:35 Cloudy 42 5.8 36 2 77 77 SSE 5 7 29.86 1011 10 16.0934 0 0
10:55 am 10:55 Cloudy 44 6.5 36 2.3 75 75 SE 6 9 29.86 1011 10 16.0934 0 0
11:15 am 11:15 Partly Cloudy 44 6.4 36 2 74 74 SE 5 7 29.87 1011 10 16.0934 0 0
11:35 am 11:35 Mostly Cloudy 45 7.3 36 2.1 70 70 ESE 3 6 29.87 1011 10 16.0934 0 0
11:55 am 11:55 Cloudy 46 7.8 36 2.3 68 68 SSW 3 6 29.85 1011 7 11.26538 0 0
12:15 pm 12:15 Sunny 47 8.3 36 2.4 67 67 Calm 29.84 1011 10 16.0934 0 0
12:35 pm 12:35 Sunny 47 8.4 36 2.3 66 66 Calm 29.83 1010 7 11.26538 0 0
12:55 pm 12:55 Sunny 48 8.8 37 2.6 65 65 SSW 3 6 29.82 1010 10 16.0934 0 0
1:15 pm 13:15 Sunny 49 9.6 37 2.6 62 62 WSW 3 6 29.82 1010 7 11.26538 0 0
1:35 pm 13:35 Sunny 51 10.3 37 2.8 60 60 SW 7 11 29.82 1010 10 16.0934 0 0
1:55 pm 13:55 Sunny 50 10.2 37 2.7 60 60 Calm 29.82 1010 10 16.0934 0 0
2:15 pm 14:15 Mostly Cloudy 50 10 37 2.7 61 61 W 3 6 29.83 1010 10 16.0934 0 0
2:35 pm 14:35 Cloudy 50 9.9 37 2.7 61 61 SW 3 6 29.83 1010 10 16.0934 0 0
2:55 pm 14:55 Cloudy 50 9.9 37 2.7 61 61 Calm 29.83 1010 10 16.0934 0 0
3:15 pm 15:15 Partly Cloudy 50 9.8 37 2.7 62 62 Calm 29.83 1010 10 16.0934 0 0
3:35 pm 15:35 Cloudy 50 9.9 37 2.7 61 61 Calm 29.83 1010 10 16.0934 0 0
3:55 pm 15:55 Cloudy 50 9.9 37 3 62 62 W 3 6 29.84 1010 10 16.0934 0 0
4:15 pm 16:15 Cloudy 49 9.6 38 3.2 65 65 Calm 29.86 1011 10 16.0934 0 0
4:35 pm 16:35 Cloudy with Light Rain 49 9.4 37 3 65 65 Calm 29.86 1011 10 16.0934 0 0
4:55 pm 16:55 Cloudy with Light Rain 48 9.1 38 3.5 68 68 Calm 29.87 1012 10 16.0934 0 0
5:15 pm 17:15 Cloudy with Light Rain 47 8.2 41 5.2 82 82 Calm 29.88 1012 10 16.0934 0 0
5:35 pm 17:35 Cloudy with Light Drizzle 46 7.9 42 5.5 85 85 Calm 29.89 1012 10 16.0934 0 0
5:55 pm 17:55 Cloudy with Light Drizzle 45 7.2 43 5.9 92 92 Calm 29.91 1013 10 16.0934 0 0
6:15 pm 18:15 Cloudy with Light Drizzle 45 7 42 5.6 91 91 Calm 29.91 1013 7 11.26538 0 0
6:35 pm 18:35 Cloudy with Light Drizzle 44 6.8 43 5.9 94 94 Calm 29.92 1013 7 11.26538 0 0
6:55 pm 18:55 Cloudy with Drizzle 44 6.4 42 5.7 95 95 Calm 29.93 1013 7 11.26538 0 0
7:15 pm 19:15 Cloudy with Light Drizzle 44 6.4 43 5.9 97 97 Calm 29.93 1013 4 6.43736 0 0
7:35 pm 19:35 Cloudy with Light Drizzle 43 6.3 42 5.8 97 97 Calm 29.94 1014 4 6.43736 0 0
7:55 pm 19:55 Cloudy with Light Drizzle 43 6 42 5.6 97 97 Calm 29.94 1014 3 4.82802 0 0
8:15 pm 20:15 Cloudy with Light Drizzle 43 6.1 42 5.8 98 98 Calm 29.95 1014 4 6.43736 0 0
8:35 pm 20:35 Cloudy with Light Drizzle 42 5.6 41 5.1 97 97 Calm 29.96 1015 3.5 5.63269 0 0
8:55 pm 20:55 Cloudy with Mist and Fog 42 5.6 42 5.3 98 98 Calm 29.97 1015 3 4.82802 0 0
9:15 pm 21:15 Cloudy with Mist and Fog 42 5.5 42 5.3 99 99 SW 3 6 29.97 1015 3 4.82802 0 0
9:35 pm 21:35 Cloudy with Mist and Fog 43 6 42 5.6 97 97 SW 6 9 29.98 1015 5 8.0467 0 0
9:55 pm 21:55 Cloudy with Mist and Fog 43 6.1 42 5.5 96 96 SW 5 7 29.98 1015 4 6.43736 0 0
10:15 pm 22:15 Cloudy with Light Drizzle 43 6.2 42 5.6 96 96 SW 3 6 29.97 1015 4 6.43736 0 0
10:35 pm 22:35 Cloudy with Mist and Fog 44 6.5 42 5.8 95 95 WSW 3 6 29.98 1015 5 8.0467 0 0
10:55 pm 22:55 Cloudy with Mist and Fog 42 5.5 41 5.2 98 98 Calm 29.98 1015 2.5 4.02335 0 0
11:15 pm 23:15 Cloudy with Mist and Fog 42 5.3 41 5 98 98 Calm 29.98 1015 2 3.21868 0 0
11:35 pm 23:35 Cloudy with Mist and Fog 42 5.4 41 5.2 99 99 Calm 29.99 1016 1.25 2.011675 0 0
11:55 pm 23:55 Cloudy with Mist and Fog 40 4.2 39 3.9 98 98 WSW 3 6 30 1016 2.5 4.02335 0 0

Powered by AerisWeather